Meteo Giornale » Osservazioni meteo Austria » Vienna-Schwechat

ore: 01:50 - Osservazioni Meteo Vienna-Schwechat
Lat. 48° 7' N Lon. 16° 34' E Alt. 183 metri s.l.m.

sereno Europe/Vienna

8 °C

Sereno

Temp. 24 Ore

1 °C

14 °C

Sud-Ovest

7.4 Km/h

Dew point -1 °C

Umidità 52 %

Visibilità  10 Km

Il sole sorge alle ore 06:24

Il sole tramonta alle ore 17:45

Data e Ora Cielo e Fenomeni T °C DP °C Um. % Pres. hPa Vis. km Vento km/h
Oggi h: 01:50 sereno Sereno 8 -1 52 1012 10 SO 7.4
Oggi h: 01:20 sereno Sereno 9 -1 49 1013 10 O/SO 9.3
Oggi h: 00:50 sereno Sereno 8 -1 52 1013 10 O/SO 9.3
Ieri h: 23:50 sereno Sereno 9 -1 49 1013 10 O/NO 11.1
Ieri h: 23:20 sereno Sereno 9 -2 45 1013 10 O 9.3
Ieri h: 22:50 sereno Sereno 10 -2 42 1013 10 O 11.1
Ieri h: 22:20 sereno Sereno 10 -2 42 1013 10 O 13
Ieri h: 21:50 poco_nuvoloso Poco Nuvoloso 10 -1 46 1014 10 O 13
Ieri h: 20:50 sereno Sereno 10 1 53 1014 10 O/SO 9.3
Ieri h: 19:50 sereno Sereno 11 1 50 1014 10 S/SO 18.5
Ieri h: 19:20 sereno Sereno 11 1 50 1014 10 S 20.3
Ieri h: 18:50 sereno Sereno 11 0 46 1014 10 SO 13
Ieri h: 18:20 sereno Sereno 12 -0 43 1015 10 SO 14.8
Ieri h: 17:50 sereno Sereno 12 0 43 1015 10 SO 13
Ieri h: 17:20 sereno Sereno 12 -0 43 1015 10 O/SO 9.3
Ieri h: 16:50 sereno Sereno 13 -1 37 1015 10 O 14.8
Ieri h: 16:20 sereno Sereno 13 -0 40 1015 10 O 13
Ieri h: 15:20 sereno Sereno 14 -0 38 1016 10 O 14.8
Ieri h: 14:50 sereno Sereno 14 0 38 1017 10 O 16.7
Ieri h: 14:20 sereno Sereno 14 1 41 1017 10 O/NO 16.7
Ieri h: 13:50 sereno Sereno 13 2 47 1017 10 O/NO 18.5
Ieri h: 13:20 sereno Sereno 14 2 44 1017 10 O/NO 20.3
Ieri h: 12:50 sereno Sereno 13 0 40 1018 10 NO 22.2
Ieri h: 12:20 sereno Sereno 13 0 40 1018 10 O/NO 24
Ieri h: 10:50 sereno Sereno 12 1 46 1019 10 O 16.7
Ieri h: 09:50 sereno Sereno 7 2 70 1019 10 S/SE 7.4
Ieri h: 09:20 sereno Sereno 6 3 81 1020 10 N 5.5
Ieri h: 08:50 sereno Sereno 5 2 80 1020 10 N 1.8
Ieri h: 08:20 sereno Sereno 4 2 86 1020 10 N 1.8
Ieri h: 07:50 sereno Sereno 3 1 86 1020 10 S/SE 7.4
Ieri h: 07:20 foschia Foschia 2 0 86 1020 4 N 5.5
Ieri h: 06:50 foschia Foschia 2 -0 86 1020 4 N 1.8
Ieri h: 06:20 sereno Sereno 2 -0 86 1020 10 N 5.5
Ieri h: 05:50 sereno Sereno 2 -0 86 1021 10 N 5.5
Ieri h: 05:20 foschia Foschia 1 0 93 1021 3 S/SE 9.3
Ieri h: 04:50 foschia Foschia 2 1 93 1021 3 N 1.8
Ieri h: 04:20 foschia Foschia 2 0 86 1021 3 N 1.8
Ieri h: 03:50 foschia Foschia 2 1 93 1022 2 S 7.4
Ieri h: 02:50 foschia Foschia 2 1 93 1022 5 S 7.4
Ieri h: 02:20 foschia Foschia 3 2 93 1023 2 N 3.7
Ieri h: 01:50 foschia Foschia 4 2 86 1023 4 N 3.7